Location: Lynch Observatory
(39.9540°N, 75.1861°W)
Time: 18:51:43
(UTC-04:00)

UWE-3 - Pass Details

Date: 02 May 2024
Orbit: 569 x 651 km, 97.8° (Epoch: 28 May)

Event Time Altitude Azimuth Distance (km) Brightness Sun altitude
Rises 04:19:40 0° 0° (N) 2,908 ? -17.3°
Reaches altitude 10° 04:22:04 10° 349° (N) 2,011 ? -16.9°
Maximum altitude 04:25:49 29° 290° (WNW) 1,180 ? -16.4°
Enters shadow 04:27:01 25° 262° (W) 1,293 ? -16.2°
